Year,Month,Day,Hour,Minute,Value (Times are PST for insolation in W/m^2)
2010,09,06,00,00,0.00
2010,09,06,00,01,0.00
2010,09,06,00,02,0.00
2010,09,06,00,03,0.00
2010,09,06,00,04,0.00
2010,09,06,00,05,0.00
2010,09,06,00,06,0.00
2010,09,06,00,07,0.00
2010,09,06,00,08,0.00
2010,09,06,00,09,0.00
2010,09,06,00,10,0.00
2010,09,06,00,11,0.00
2010,09,06,00,12,0.00
2010,09,06,00,13,0.00
2010,09,06,00,14,0.00
2010,09,06,00,15,0.00
2010,09,06,00,16,0.00
2010,09,06,00,17,0.00
2010,09,06,00,18,0.00
2010,09,06,00,19,0.00
2010,09,06,00,20,0.00
2010,09,06,00,21,0.00
2010,09,06,00,22,0.00
2010,09,06,00,23,0.00
2010,09,06,00,24,0.00
2010,09,06,00,25,0.00
2010,09,06,00,26,0.00
2010,09,06,00,27,0.00
2010,09,06,00,28,0.00
2010,09,06,00,29,0.00
2010,09,06,00,30,0.00
2010,09,06,00,31,0.00
2010,09,06,00,32,0.00
2010,09,06,00,33,0.00
2010,09,06,00,34,0.00
2010,09,06,00,35,0.00
2010,09,06,00,36,0.00
2010,09,06,00,37,0.00
2010,09,06,00,38,0.00
2010,09,06,00,39,0.00
2010,09,06,00,40,0.00
2010,09,06,00,41,0.00
2010,09,06,00,42,0.00
2010,09,06,00,43,0.00
2010,09,06,00,44,0.00
2010,09,06,00,45,0.00
2010,09,06,00,46,0.00
2010,09,06,00,47,0.00
2010,09,06,00,48,0.00
2010,09,06,00,49,0.00
2010,09,06,00,50,0.00
2010,09,06,00,51,0.00
2010,09,06,00,52,0.00
2010,09,06,00,53,0.00
2010,09,06,00,54,0.00
2010,09,06,00,55,0.00
2010,09,06,00,56,0.00
2010,09,06,00,57,0.00
2010,09,06,00,58,0.00
2010,09,06,00,59,0.00
2010,09,06,01,00,0.00
2010,09,06,01,01,0.00
2010,09,06,01,02,0.00
2010,09,06,01,03,0.00
2010,09,06,01,04,0.00
2010,09,06,01,05,0.00
2010,09,06,01,06,0.00
2010,09,06,01,07,0.00
2010,09,06,01,08,0.00
2010,09,06,01,09,0.00
2010,09,06,01,10,0.00
2010,09,06,01,11,0.00
2010,09,06,01,12,0.00
2010,09,06,01,13,0.00
2010,09,06,01,14,0.00
2010,09,06,01,15,0.00
2010,09,06,01,16,0.00
2010,09,06,01,17,0.00
2010,09,06,01,18,0.00
2010,09,06,01,19,0.00
2010,09,06,01,20,0.00
2010,09,06,01,21,0.00
2010,09,06,01,22,0.00
2010,09,06,01,23,0.00
2010,09,06,01,24,0.00
2010,09,06,01,25,0.00
2010,09,06,01,26,0.00
2010,09,06,01,27,0.00
2010,09,06,01,28,0.00
2010,09,06,01,29,0.00
2010,09,06,01,30,0.00
2010,09,06,01,31,0.00
2010,09,06,01,32,0.00
2010,09,06,01,33,0.00
2010,09,06,01,34,0.00
2010,09,06,01,35,0.00
2010,09,06,01,36,0.00
2010,09,06,01,37,0.00
2010,09,06,01,38,0.00
2010,09,06,01,39,0.00
2010,09,06,01,40,0.00
2010,09,06,01,41,0.00
2010,09,06,01,42,0.00
2010,09,06,01,43,0.00
2010,09,06,01,44,0.00
2010,09,06,01,45,0.00
2010,09,06,01,46,0.00
2010,09,06,01,47,0.00
2010,09,06,01,48,0.00
2010,09,06,01,49,0.00
2010,09,06,01,50,0.00
2010,09,06,01,51,0.00
2010,09,06,01,52,0.00
2010,09,06,01,53,0.00
2010,09,06,01,54,0.00
2010,09,06,01,55,0.00
2010,09,06,01,56,0.00
2010,09,06,01,57,0.00
2010,09,06,01,58,0.00
2010,09,06,01,59,0.00
2010,09,06,02,00,0.00
2010,09,06,02,01,0.00
2010,09,06,02,02,0.00
2010,09,06,02,03,0.00
2010,09,06,02,04,0.00
2010,09,06,02,05,0.00
2010,09,06,02,06,0.00
2010,09,06,02,07,0.00
2010,09,06,02,08,0.00
2010,09,06,02,09,0.00
2010,09,06,02,10,0.00
2010,09,06,02,11,0.00
2010,09,06,02,12,0.00
2010,09,06,02,13,0.00
2010,09,06,02,14,0.00
2010,09,06,02,15,0.00
2010,09,06,02,16,0.00
2010,09,06,02,17,0.00
2010,09,06,02,18,0.00
2010,09,06,02,19,0.00
2010,09,06,02,20,0.00
2010,09,06,02,21,0.00
2010,09,06,02,22,0.00
2010,09,06,02,23,0.00
2010,09,06,02,24,0.00
2010,09,06,02,25,0.00
2010,09,06,02,26,0.00
2010,09,06,02,27,0.00
2010,09,06,02,28,0.00
2010,09,06,02,29,0.00
2010,09,06,02,30,0.00
2010,09,06,02,31,0.00
2010,09,06,02,32,0.00
2010,09,06,02,33,0.00
2010,09,06,02,34,0.00
2010,09,06,02,35,0.00
2010,09,06,02,36,0.00
2010,09,06,02,37,0.00
2010,09,06,02,38,0.00
2010,09,06,02,39,0.00
2010,09,06,02,40,0.00
2010,09,06,02,41,0.00
2010,09,06,02,42,0.00
2010,09,06,02,43,0.00
2010,09,06,02,44,0.00
2010,09,06,02,45,0.00
2010,09,06,02,46,0.00
2010,09,06,02,47,0.00
2010,09,06,02,48,0.00
2010,09,06,02,49,0.00
2010,09,06,02,50,0.00
2010,09,06,02,51,0.00
2010,09,06,02,52,0.00
2010,09,06,02,53,0.00
2010,09,06,02,54,0.00
2010,09,06,02,55,0.00
2010,09,06,02,56,0.00
2010,09,06,02,57,0.00
2010,09,06,02,58,0.00
2010,09,06,02,59,0.00
2010,09,06,03,00,0.00
2010,09,06,03,01,0.00
2010,09,06,03,02,0.00
2010,09,06,03,03,0.00
2010,09,06,03,04,0.00
2010,09,06,03,05,0.00
2010,09,06,03,06,0.00
2010,09,06,03,07,0.00
2010,09,06,03,08,0.00
2010,09,06,03,09,0.00
2010,09,06,03,10,0.00
2010,09,06,03,11,0.00
2010,09,06,03,12,0.00
2010,09,06,03,13,0.00
2010,09,06,03,14,0.00
2010,09,06,03,15,0.00
2010,09,06,03,16,0.00
2010,09,06,03,17,0.00
2010,09,06,03,18,0.00
2010,09,06,03,19,0.00
2010,09,06,03,20,0.00
2010,09,06,03,21,0.00
2010,09,06,03,22,0.00
2010,09,06,03,23,0.00
2010,09,06,03,24,0.00
2010,09,06,03,25,0.00
2010,09,06,03,26,0.00
2010,09,06,03,27,0.00
2010,09,06,03,28,0.00
2010,09,06,03,29,0.00
2010,09,06,03,30,0.00
2010,09,06,03,31,0.00
2010,09,06,03,32,0.00
2010,09,06,03,33,0.00
2010,09,06,03,34,0.00
2010,09,06,03,35,0.00
2010,09,06,03,36,0.00
2010,09,06,03,37,0.00
2010,09,06,03,38,0.00
2010,09,06,03,39,0.00
2010,09,06,03,40,0.00
2010,09,06,03,41,0.00
2010,09,06,03,42,0.00
2010,09,06,03,43,0.00
2010,09,06,03,44,0.00
2010,09,06,03,45,0.00
2010,09,06,03,46,0.00
2010,09,06,03,47,0.00
2010,09,06,03,48,0.00
2010,09,06,03,49,0.00
2010,09,06,03,50,0.00
2010,09,06,03,51,0.00
2010,09,06,03,52,0.00
2010,09,06,03,53,0.00
2010,09,06,03,54,0.00
2010,09,06,03,55,0.00
2010,09,06,03,56,0.00
2010,09,06,03,57,0.00
2010,09,06,03,58,0.00
2010,09,06,03,59,0.00
2010,09,06,04,00,0.00
2010,09,06,04,01,0.00
2010,09,06,04,02,0.00
2010,09,06,04,03,0.00
2010,09,06,04,04,0.00
2010,09,06,04,05,0.00
2010,09,06,04,06,0.00
2010,09,06,04,07,0.00
2010,09,06,04,08,0.00
2010,09,06,04,09,0.00
2010,09,06,04,10,0.00
2010,09,06,04,11,0.00
2010,09,06,04,12,0.00
2010,09,06,04,13,0.00
2010,09,06,04,14,0.00
2010,09,06,04,15,0.00
2010,09,06,04,16,0.00
2010,09,06,04,17,0.00
2010,09,06,04,18,0.00
2010,09,06,04,19,0.00
2010,09,06,04,20,0.00
2010,09,06,04,21,0.00
2010,09,06,04,22,0.00
2010,09,06,04,23,0.00
2010,09,06,04,24,0.00
2010,09,06,04,25,0.00
2010,09,06,04,26,0.00
2010,09,06,04,27,0.00
2010,09,06,04,28,0.00
2010,09,06,04,29,0.00
2010,09,06,04,30,0.00
2010,09,06,04,31,0.00
2010,09,06,04,32,0.00
2010,09,06,04,33,0.00
2010,09,06,04,34,0.00
2010,09,06,04,35,0.00
2010,09,06,04,36,0.00
2010,09,06,04,37,0.00
2010,09,06,04,38,0.00
2010,09,06,04,39,0.00
2010,09,06,04,40,0.00
2010,09,06,04,41,0.00
2010,09,06,04,42,0.00
2010,09,06,04,43,0.00
2010,09,06,04,44,0.00
2010,09,06,04,45,0.00
2010,09,06,04,46,0.00
2010,09,06,04,47,0.00
2010,09,06,04,48,0.00
2010,09,06,04,49,0.00
2010,09,06,04,50,0.00
2010,09,06,04,51,0.00
2010,09,06,04,52,0.00
2010,09,06,04,53,0.00
2010,09,06,04,54,0.00
2010,09,06,04,55,0.00
2010,09,06,04,56,0.00
2010,09,06,04,57,0.00
2010,09,06,04,58,0.00
2010,09,06,04,59,0.00
2010,09,06,05,00,0.00
2010,09,06,05,01,0.00
2010,09,06,05,02,0.00
2010,09,06,05,03,0.00
2010,09,06,05,04,0.00
2010,09,06,05,05,0.00
2010,09,06,05,06,0.00
2010,09,06,05,07,0.00
2010,09,06,05,08,0.00
2010,09,06,05,09,0.00
2010,09,06,05,10,0.00
2010,09,06,05,11,0.00
2010,09,06,05,12,0.00
2010,09,06,05,13,0.00
2010,09,06,05,14,0.00
2010,09,06,05,15,0.00
2010,09,06,05,16,0.00
2010,09,06,05,17,0.00
2010,09,06,05,18,0.00
2010,09,06,05,19,0.00
2010,09,06,05,20,0.00
2010,09,06,05,21,0.00
2010,09,06,05,22,0.00
2010,09,06,05,23,0.00
2010,09,06,05,24,0.00
2010,09,06,05,25,0.00
2010,09,06,05,26,0.00
2010,09,06,05,27,0.00
2010,09,06,05,28,0.00
2010,09,06,05,29,0.00
2010,09,06,05,30,0.00
2010,09,06,05,31,0.00
2010,09,06,05,32,0.00
2010,09,06,05,33,0.00
2010,09,06,05,34,0.00
2010,09,06,05,35,0.00
2010,09,06,05,36,0.00
2010,09,06,05,37,0.00
2010,09,06,05,38,0.00
2010,09,06,05,39,0.00
2010,09,06,05,40,0.00
2010,09,06,05,41,0.00
2010,09,06,05,42,0.00
2010,09,06,05,43,0.00
2010,09,06,05,44,0.00
2010,09,06,05,45,0.00
2010,09,06,05,46,0.00
2010,09,06,05,47,0.00
2010,09,06,05,48,0.00
2010,09,06,05,49,0.00
2010,09,06,05,50,0.00
2010,09,06,05,51,0.00
2010,09,06,05,52,0.00
2010,09,06,05,53,0.00
2010,09,06,05,54,0.00
2010,09,06,05,55,0.00
2010,09,06,05,56,0.00
2010,09,06,05,57,0.00
2010,09,06,05,58,0.00
2010,09,06,05,59,0.00
2010,09,06,06,00,0.00
2010,09,06,06,01,0.00
2010,09,06,06,02,0.00
2010,09,06,06,03,0.00
2010,09,06,06,04,0.00
2010,09,06,06,05,0.00
2010,09,06,06,06,0.00
2010,09,06,06,07,0.00
2010,09,06,06,08,0.00
2010,09,06,06,09,0.00
2010,09,06,06,10,0.00
2010,09,06,06,11,0.00
2010,09,06,06,12,0.00
2010,09,06,06,13,0.00
2010,09,06,06,14,0.00
2010,09,06,06,15,0.00
2010,09,06,06,16,0.00
2010,09,06,06,17,0.00
2010,09,06,06,18,0.00
2010,09,06,06,19,0.00
2010,09,06,06,20,0.00
2010,09,06,06,21,0.00
2010,09,06,06,22,0.00
2010,09,06,06,23,0.00
2010,09,06,06,24,0.00
2010,09,06,06,25,0.00
2010,09,06,06,26,0.00
2010,09,06,06,27,0.00
2010,09,06,06,28,0.00
2010,09,06,06,29,0.00
2010,09,06,06,30,0.00
2010,09,06,06,31,0.00
2010,09,06,06,32,0.00
2010,09,06,06,33,0.00
2010,09,06,06,34,0.00
2010,09,06,06,35,0.00
2010,09,06,06,36,0.00
2010,09,06,06,37,0.00
2010,09,06,06,38,0.00
2010,09,06,06,39,0.00
2010,09,06,06,40,0.00
2010,09,06,06,41,0.00
2010,09,06,06,42,0.00
2010,09,06,06,43,0.00
2010,09,06,06,44,0.00
2010,09,06,06,45,0.00
2010,09,06,06,46,0.00
2010,09,06,06,47,0.00
2010,09,06,06,48,0.00
2010,09,06,06,49,0.00
2010,09,06,06,50,0.00
2010,09,06,06,51,0.00
2010,09,06,06,52,0.00
2010,09,06,06,53,0.00
2010,09,06,06,54,0.00
2010,09,06,06,55,0.00
2010,09,06,06,56,0.00
2010,09,06,06,57,7.00
2010,09,06,06,58,7.00
2010,09,06,06,59,7.00
2010,09,06,07,00,7.00
2010,09,06,07,01,7.00
2010,09,06,07,02,7.00
2010,09,06,07,03,7.00
2010,09,06,07,04,7.00
2010,09,06,07,05,7.00
2010,09,06,07,06,7.00
2010,09,06,07,07,7.00
2010,09,06,07,08,7.00
2010,09,06,07,09,7.80
2010,09,06,07,10,9.00
2010,09,06,07,11,9.00
2010,09,06,07,12,9.00
2010,09,06,07,13,8.50
2010,09,06,07,14,7.00
2010,09,06,07,15,7.00
2010,09,06,07,16,7.00
2010,09,06,07,17,7.00
2010,09,06,07,18,7.00
2010,09,06,07,19,7.00
2010,09,06,07,20,7.00
2010,09,06,07,21,7.00
2010,09,06,07,22,9.00
2010,09,06,07,23,9.00
2010,09,06,07,24,9.00
2010,09,06,07,25,9.00
2010,09,06,07,26,10.50
2010,09,06,07,27,11.00
2010,09,06,07,28,11.00
2010,09,06,07,29,11.00
2010,09,06,07,30,8.70
2010,09,06,07,31,7.00
2010,09,06,07,32,7.00
2010,09,06,07,33,7.00
2010,09,06,07,34,7.00
2010,09,06,07,35,7.00
2010,09,06,07,36,7.00
2010,09,06,07,37,7.00
2010,09,06,07,38,7.50
2010,09,06,07,39,9.00
2010,09,06,07,40,9.00
2010,09,06,07,41,9.00
2010,09,06,07,42,9.40
2010,09,06,07,43,16.00
2010,09,06,07,44,16.00
2010,09,06,07,45,16.00
2010,09,06,07,46,16.00
2010,09,06,07,47,25.00
2010,09,06,07,48,26.00
2010,09,06,07,49,26.00
2010,09,06,07,50,26.00
2010,09,06,07,51,29.00
2010,09,06,07,52,30.00
2010,09,06,07,53,30.00
2010,09,06,07,54,30.00
2010,09,06,07,55,37.20
2010,09,06,07,56,42.00
2010,09,06,07,57,42.00
2010,09,06,07,58,42.00
2010,09,06,07,59,49.20
2010,09,06,08,00,62.90
2010,09,06,08,01,63.50
2010,09,06,08,02,60.10
2010,09,06,08,03,56.50
2010,09,06,08,04,56.60
2010,09,06,08,05,55.00
2010,09,06,08,06,53.60
2010,09,06,08,07,48.40
2010,09,06,08,08,45.60
2010,09,06,08,09,43.10
2010,09,06,08,10,40.60
2010,09,06,08,11,41.50
2010,09,06,08,12,43.80
2010,09,06,08,13,44.60
2010,09,06,08,14,46.80
2010,09,06,08,15,48.70
2010,09,06,08,16,50.50
2010,09,06,08,17,51.00
2010,09,06,08,18,51.00
2010,09,06,08,19,51.00
2010,09,06,08,20,53.30
2010,09,06,08,21,55.00
2010,09,06,08,22,55.00
2010,09,06,08,23,55.00
2010,09,06,08,24,57.50
2010,09,06,08,25,62.10
2010,09,06,08,26,57.00
2010,09,06,08,27,53.20
2010,09,06,08,28,53.40
2010,09,06,08,29,55.00
2010,09,06,08,30,52.20
2010,09,06,08,31,47.20
2010,09,06,08,32,36.80
2010,09,06,08,33,36.70
2010,09,06,08,34,42.00
2010,09,06,08,35,44.80
2010,09,06,08,36,44.50
2010,09,06,08,37,48.50
2010,09,06,08,38,57.80
2010,09,06,08,39,62.60
2010,09,06,08,40,65.00
2010,09,06,08,41,70.80
2010,09,06,08,42,75.90
2010,09,06,08,43,81.20
2010,09,06,08,44,88.90
2010,09,06,08,45,94.20
2010,09,06,08,46,103.20
2010,09,06,08,47,109.80
2010,09,06,08,48,124.80
2010,09,06,08,49,128.80
2010,09,06,08,50,124.20
2010,09,06,08,51,110.60
2010,09,06,08,52,90.40
2010,09,06,08,53,84.00
2010,09,06,08,54,76.60
2010,09,06,08,55,75.70
2010,09,06,08,56,77.00
2010,09,06,08,57,80.80
2010,09,06,08,58,80.00
2010,09,06,08,59,82.10
2010,09,06,09,00,84.50
2010,09,06,09,01,83.40
2010,09,06,09,02,81.00
2010,09,06,09,03,81.00
2010,09,06,09,04,79.90
2010,09,06,09,05,74.10
2010,09,06,09,06,78.20
2010,09,06,09,07,79.00
2010,09,06,09,08,80.40
2010,09,06,09,09,82.40
2010,09,06,09,10,77.50
2010,09,06,09,11,83.50
2010,09,06,09,12,92.50
2010,09,06,09,13,90.70
2010,09,06,09,14,90.00
2010,09,06,09,15,86.40
2010,09,06,09,16,78.80
2010,09,06,09,17,80.40
2010,09,06,09,18,81.80
2010,09,06,09,19,90.40
2010,09,06,09,20,86.10
2010,09,06,09,21,84.00
2010,09,06,09,22,77.70
2010,09,06,09,23,76.80
2010,09,06,09,24,74.40
2010,09,06,09,25,70.90
2010,09,06,09,26,69.20
2010,09,06,09,27,64.40
2010,09,06,09,28,59.00
2010,09,06,09,29,57.10
2010,09,06,09,30,56.60
2010,09,06,09,31,56.00
2010,09,06,09,32,57.70
2010,09,06,09,33,54.80
2010,09,06,09,34,51.00
2010,09,06,09,35,51.00
2010,09,06,09,36,52.50
2010,09,06,09,37,51.00
2010,09,06,09,38,51.00
2010,09,06,09,39,51.00
2010,09,06,09,40,49.80
2010,09,06,09,41,49.00
2010,09,06,09,42,50.80
2010,09,06,09,43,48.00
2010,09,06,09,44,49.30
2010,09,06,09,45,52.40
2010,09,06,09,46,53.00
2010,09,06,09,47,53.00
2010,09,06,09,48,53.00
2010,09,06,09,49,58.60
2010,09,06,09,50,71.20
2010,09,06,09,51,71.00
2010,09,06,09,52,68.90
2010,09,06,09,53,67.50
2010,09,06,09,54,69.00
2010,09,06,09,55,67.60
2010,09,06,09,56,67.00
2010,09,06,09,57,67.00
2010,09,06,09,58,67.50
2010,09,06,09,59,69.00
2010,09,06,10,00,69.60
2010,09,06,10,01,69.10
2010,09,06,10,02,67.40
2010,09,06,10,03,68.50
2010,09,06,10,04,64.10
2010,09,06,10,05,63.00
2010,09,06,10,06,64.50
2010,09,06,10,07,62.90
2010,09,06,10,08,62.00
2010,09,06,10,09,63.60
2010,09,06,10,10,68.50
2010,09,06,10,11,66.20
2010,09,06,10,12,66.40
2010,09,06,10,13,62.20
2010,09,06,10,14,64.10
2010,09,06,10,15,65.40
2010,09,06,10,16,59.20
2010,09,06,10,17,56.20
2010,09,06,10,18,58.00
2010,09,06,10,19,58.80
2010,09,06,10,20,62.80
2010,09,06,10,21,68.80
2010,09,06,10,22,74.00
2010,09,06,10,23,74.00
2010,09,06,10,24,77.60
2010,09,06,10,25,80.60
2010,09,06,10,26,77.50
2010,09,06,10,27,83.50
2010,09,06,10,28,90.70
2010,09,06,10,29,90.00
2010,09,06,10,30,92.80
2010,09,06,10,31,100.20
2010,09,06,10,32,101.20
2010,09,06,10,33,83.80
2010,09,06,10,34,74.90
2010,09,06,10,35,74.80
2010,09,06,10,36,78.60
2010,09,06,10,37,80.60
2010,09,06,10,38,78.50
2010,09,06,10,39,82.60
2010,09,06,10,40,91.00
2010,09,06,10,41,95.50
2010,09,06,10,42,93.10
2010,09,06,10,43,88.50
2010,09,06,10,44,85.60
2010,09,06,10,45,86.80
2010,09,06,10,46,83.80
2010,09,06,10,47,72.30
2010,09,06,10,48,71.20
2010,09,06,10,49,76.10
2010,09,06,10,50,87.50
2010,09,06,10,51,79.80
2010,09,06,10,52,72.10
2010,09,06,10,53,69.20
2010,09,06,10,54,73.60
2010,09,06,10,55,81.40
2010,09,06,10,56,88.20
2010,09,06,10,57,91.90
2010,09,06,10,58,84.00
2010,09,06,10,59,83.60
2010,09,06,11,00,81.60
2010,09,06,11,01,77.50
2010,09,06,11,02,71.90
2010,09,06,11,03,72.50
2010,09,06,11,04,81.60
2010,09,06,11,05,80.50
2010,09,06,11,06,79.00
2010,09,06,11,07,80.80
2010,09,06,11,08,81.60
2010,09,06,11,09,83.00
2010,09,06,11,10,80.60
2010,09,06,11,11,73.80
2010,09,06,11,12,77.70
2010,09,06,11,13,84.20
2010,09,06,11,14,88.00
2010,09,06,11,15,85.20
2010,09,06,11,16,83.10
2010,09,06,11,17,88.20
2010,09,06,11,18,90.90
2010,09,06,11,19,92.10
2010,09,06,11,20,87.50
2010,09,06,11,21,90.40
2010,09,06,11,22,85.10
2010,09,06,11,23,72.80
2010,09,06,11,24,71.10
2010,09,06,11,25,78.90
2010,09,06,11,26,83.60
2010,09,06,11,27,82.40
2010,09,06,11,28,73.80
2010,09,06,11,29,65.00
2010,09,06,11,30,63.80
2010,09,06,11,31,65.00
2010,09,06,11,32,76.60
2010,09,06,11,33,72.80
2010,09,06,11,34,65.40
2010,09,06,11,35,58.80
2010,09,06,11,36,56.50
2010,09,06,11,37,55.10
2010,09,06,11,38,56.00
2010,09,06,11,39,55.50
2010,09,06,11,40,56.80
2010,09,06,11,41,55.80
2010,09,06,11,42,56.10
2010,09,06,11,43,56.90
2010,09,06,11,44,55.50
2010,09,06,11,45,57.20
2010,09,06,11,46,54.20
2010,09,06,11,47,52.80
2010,09,06,11,48,50.50
2010,09,06,11,49,49.00
2010,09,06,11,50,50.20
2010,09,06,11,51,54.00
2010,09,06,11,52,56.30
2010,09,06,11,53,60.60
2010,09,06,11,54,60.20
2010,09,06,11,55,56.80
2010,09,06,11,56,57.80
2010,09,06,11,57,55.00
2010,09,06,11,58,55.00
2010,09,06,11,59,56.60
2010,09,06,12,00,61.50
2010,09,06,12,01,63.00
2010,09,06,12,02,63.00
2010,09,06,12,03,64.10
2010,09,06,12,04,68.10
2010,09,06,12,05,67.80
2010,09,06,12,06,65.20
2010,09,06,12,07,65.60
2010,09,06,12,08,71.60
2010,09,06,12,09,78.00
2010,09,06,12,10,82.80
2010,09,06,12,11,89.20
2010,09,06,12,12,93.40
2010,09,06,12,13,98.50
2010,09,06,12,14,94.20
2010,09,06,12,15,87.60
2010,09,06,12,16,84.50
2010,09,06,12,17,88.00
2010,09,06,12,18,89.40
2010,09,06,12,19,90.20
2010,09,06,12,20,93.00
2010,09,06,12,21,93.00
2010,09,06,12,22,90.40
2010,09,06,12,23,85.20
2010,09,06,12,24,83.00
2010,09,06,12,25,83.60
2010,09,06,12,26,85.50
2010,09,06,12,27,83.90
2010,09,06,12,28,82.30
2010,09,06,12,29,80.10
2010,09,06,12,30,79.00
2010,09,06,12,31,82.00
2010,09,06,12,32,86.50
2010,09,06,12,33,92.20
2010,09,06,12,34,98.10
2010,09,06,12,35,105.50
2010,09,06,12,36,114.20
2010,09,06,12,37,117.70
2010,09,06,12,38,116.70
2010,09,06,12,39,118.00
2010,09,06,12,40,119.20
2010,09,06,12,41,126.20
2010,09,06,12,42,126.80
2010,09,06,12,43,126.40
2010,09,06,12,44,133.70
2010,09,06,12,45,146.90
2010,09,06,12,46,166.90
2010,09,06,12,47,183.40
2010,09,06,12,48,198.50
2010,09,06,12,49,214.10
2010,09,06,12,50,204.20
2010,09,06,12,51,187.50
2010,09,06,12,52,189.80
2010,09,06,12,53,189.30
2010,09,06,12,54,191.70
2010,09,06,12,55,180.10
2010,09,06,12,56,177.60
2010,09,06,12,57,169.20
2010,09,06,12,58,160.60
2010,09,06,12,59,168.30
2010,09,06,13,00,182.60
2010,09,06,13,01,197.50
2010,09,06,13,02,206.60
2010,09,06,13,03,197.70
2010,09,06,13,04,201.60
2010,09,06,13,05,206.40
2010,09,06,13,06,226.30
2010,09,06,13,07,265.40
2010,09,06,13,08,242.40
2010,09,06,13,09,219.60
2010,09,06,13,10,215.60
2010,09,06,13,11,206.70
2010,09,06,13,12,238.70
2010,09,06,13,13,270.40
2010,09,06,13,14,286.90
2010,09,06,13,15,295.00
2010,09,06,13,16,291.00
2010,09,06,13,17,252.20
2010,09,06,13,18,219.30
2010,09,06,13,19,198.50
2010,09,06,13,20,178.20
2010,09,06,13,21,155.00
2010,09,06,13,22,136.40
2010,09,06,13,23,129.30
2010,09,06,13,24,120.90
2010,09,06,13,25,115.00
2010,09,06,13,26,113.00
2010,09,06,13,27,112.10
2010,09,06,13,28,104.60
2010,09,06,13,29,108.40
2010,09,06,13,30,111.00
2010,09,06,13,31,120.40
2010,09,06,13,32,116.20
2010,09,06,13,33,116.50
2010,09,06,13,34,112.20
2010,09,06,13,35,109.80
2010,09,06,13,36,105.00
2010,09,06,13,37,101.80
2010,09,06,13,38,100.00
2010,09,06,13,39,97.80
2010,09,06,13,40,91.50
2010,09,06,13,41,92.80
2010,09,06,13,42,84.90
2010,09,06,13,43,77.60
2010,09,06,13,44,79.00
2010,09,06,13,45,77.20
2010,09,06,13,46,71.50
2010,09,06,13,47,68.70
2010,09,06,13,48,66.10
2010,09,06,13,49,71.20
2010,09,06,13,50,68.60
2010,09,06,13,51,63.10
2010,09,06,13,52,63.00
2010,09,06,13,53,63.60
2010,09,06,13,54,63.40
2010,09,06,13,55,62.00
2010,09,06,13,56,64.80
2010,09,06,13,57,67.50
2010,09,06,13,58,67.90
2010,09,06,13,59,63.90
2010,09,06,14,00,65.00
2010,09,06,14,01,68.80
2010,09,06,14,02,73.40
2010,09,06,14,03,80.50
2010,09,06,14,04,76.00
2010,09,06,14,05,80.80
2010,09,06,14,06,88.50
2010,09,06,14,07,95.30
2010,09,06,14,08,99.00
2010,09,06,14,09,99.50
2010,09,06,14,10,100.00
2010,09,06,14,11,99.20
2010,09,06,14,12,95.40
2010,09,06,14,13,95.60
2010,09,06,14,14,93.00
2010,09,06,14,15,91.60
2010,09,06,14,16,92.90
2010,09,06,14,17,93.20
2010,09,06,14,18,94.40
2010,09,06,14,19,93.80
2010,09,06,14,20,92.50
2010,09,06,14,21,91.00
2010,09,06,14,22,86.20
2010,09,06,14,23,86.60
2010,09,06,14,24,89.10
2010,09,06,14,25,87.20
2010,09,06,14,26,83.20
2010,09,06,14,27,82.10
2010,09,06,14,28,73.40
2010,09,06,14,29,74.10
2010,09,06,14,30,73.20
2010,09,06,14,31,73.90
2010,09,06,14,32,72.40
2010,09,06,14,33,74.00
2010,09,06,14,34,77.70
2010,09,06,14,35,85.90
2010,09,06,14,36,90.40
2010,09,06,14,37,95.50
2010,09,06,14,38,109.50
2010,09,06,14,39,118.80
2010,09,06,14,40,125.60
2010,09,06,14,41,133.30
2010,09,06,14,42,121.80
2010,09,06,14,43,129.00
2010,09,06,14,44,138.10
2010,09,06,14,45,130.60
2010,09,06,14,46,134.00
2010,09,06,14,47,120.80
2010,09,06,14,48,128.40
2010,09,06,14,49,154.30
2010,09,06,14,50,170.50
2010,09,06,14,51,170.00
2010,09,06,14,52,147.60
2010,09,06,14,53,134.30
2010,09,06,14,54,128.70
2010,09,06,14,55,116.00
2010,09,06,14,56,115.40
2010,09,06,14,57,107.60
2010,09,06,14,58,97.00
2010,09,06,14,59,97.00
2010,09,06,15,00,98.20
2010,09,06,15,01,92.60
2010,09,06,15,02,92.20
2010,09,06,15,03,85.10
2010,09,06,15,04,82.10
2010,09,06,15,05,90.10
2010,09,06,15,06,98.20
2010,09,06,15,07,111.00
2010,09,06,15,08,113.10
2010,09,06,15,09,118.00
2010,09,06,15,10,124.90
2010,09,06,15,11,131.70
2010,09,06,15,12,134.90
2010,09,06,15,13,145.20
2010,09,06,15,14,147.10
2010,09,06,15,15,151.90
2010,09,06,15,16,141.80
2010,09,06,15,17,130.10
2010,09,06,15,18,122.90
2010,09,06,15,19,116.20
2010,09,06,15,20,118.60
2010,09,06,15,21,133.20
2010,09,06,15,22,149.30
2010,09,06,15,23,148.70
2010,09,06,15,24,155.90
2010,09,06,15,25,151.10
2010,09,06,15,26,142.40
2010,09,06,15,27,137.20
2010,09,06,15,28,134.30
2010,09,06,15,29,126.40
2010,09,06,15,30,130.40
2010,09,06,15,31,126.80
2010,09,06,15,32,119.60
2010,09,06,15,33,106.60
2010,09,06,15,34,96.80
2010,09,06,15,35,94.80
2010,09,06,15,36,98.60
2010,09,06,15,37,104.20
2010,09,06,15,38,107.40
2010,09,06,15,39,111.00
2010,09,06,15,40,112.80
2010,09,06,15,41,117.20
2010,09,06,15,42,110.30
2010,09,06,15,43,106.50
2010,09,06,15,44,111.90
2010,09,06,15,45,111.80
2010,09,06,15,46,109.10
2010,09,06,15,47,114.30
2010,09,06,15,48,120.00
2010,09,06,15,49,121.30
2010,09,06,15,50,125.50
2010,09,06,15,51,123.20
2010,09,06,15,52,117.20
2010,09,06,15,53,111.00
2010,09,06,15,54,107.30
2010,09,06,15,55,105.50
2010,09,06,15,56,106.80
2010,09,06,15,57,107.00
2010,09,06,15,58,108.40
2010,09,06,15,59,106.20
2010,09,06,16,00,100.60
2010,09,06,16,01,103.20
2010,09,06,16,02,104.20
2010,09,06,16,03,103.80
2010,09,06,16,04,94.30
2010,09,06,16,05,87.80
2010,09,06,16,06,89.20
2010,09,06,16,07,80.70
2010,09,06,16,08,79.00
2010,09,06,16,09,80.10
2010,09,06,16,10,78.40
2010,09,06,16,11,77.00
2010,09,06,16,12,76.20
2010,09,06,16,13,72.70
2010,09,06,16,14,75.60
2010,09,06,16,15,81.30
2010,09,06,16,16,89.60
2010,09,06,16,17,91.00
2010,09,06,16,18,98.10
2010,09,06,16,19,106.90
2010,09,06,16,20,110.60
2010,09,06,16,21,99.90
2010,09,06,16,22,106.60
2010,09,06,16,23,106.60
2010,09,06,16,24,91.30
2010,09,06,16,25,89.30
2010,09,06,16,26,84.40
2010,09,06,16,27,77.30
2010,09,06,16,28,80.90
2010,09,06,16,29,86.80
2010,09,06,16,30,79.10
2010,09,06,16,31,78.60
2010,09,06,16,32,91.30
2010,09,06,16,33,100.70
2010,09,06,16,34,102.00
2010,09,06,16,35,118.20
2010,09,06,16,36,127.90
2010,09,06,16,37,132.70
2010,09,06,16,38,144.60
2010,09,06,16,39,151.60
2010,09,06,16,40,140.40
2010,09,06,16,41,134.80
2010,09,06,16,42,129.00
2010,09,06,16,43,121.00
2010,09,06,16,44,123.70
2010,09,06,16,45,124.50
2010,09,06,16,46,126.20
2010,09,06,16,47,127.20
2010,09,06,16,48,131.90
2010,09,06,16,49,140.80
2010,09,06,16,50,136.40
2010,09,06,16,51,128.00
2010,09,06,16,52,124.30
2010,09,06,16,53,120.60
2010,09,06,16,54,115.10
2010,09,06,16,55,107.70
2010,09,06,16,56,102.30
2010,09,06,16,57,106.60
2010,09,06,16,58,107.80
2010,09,06,16,59,109.20
2010,09,06,17,00,108.20
2010,09,06,17,01,104.30
2010,09,06,17,02,111.40
2010,09,06,17,03,100.80
2010,09,06,17,04,96.00
2010,09,06,17,05,98.30
2010,09,06,17,06,94.20
2010,09,06,17,07,93.30
2010,09,06,17,08,96.40
2010,09,06,17,09,106.10
2010,09,06,17,10,109.70
2010,09,06,17,11,106.60
2010,09,06,17,12,109.60
2010,09,06,17,13,113.10
2010,09,06,17,14,108.10
2010,09,06,17,15,106.00
2010,09,06,17,16,99.40
2010,09,06,17,17,97.90
2010,09,06,17,18,93.60
2010,09,06,17,19,96.00
2010,09,06,17,20,98.40
2010,09,06,17,21,97.40
2010,09,06,17,22,96.70
2010,09,06,17,23,92.90
2010,09,06,17,24,90.20
2010,09,06,17,25,89.80
2010,09,06,17,26,84.00
2010,09,06,17,27,84.60
2010,09,06,17,28,88.90
2010,09,06,17,29,91.00
2010,09,06,17,30,89.10
2010,09,06,17,31,86.10